Weather History for KOLU - September, 2013

Change the Weather History Date:

Monday, September 16, 2013

  Actual Average Record
Temperature  
Mean Temperature 63 °F -  
Max Temperature 69 °F 73 °F 95 °F (1955)
Min Temperature 57 °F 51 °F 37 °F (1999)
Degree Days  
Heating Degree Days 2    
Growing Degree Days 13 (Base 50)    
Moisture  
Dew Point 50 °F    
Average Humidity 67    
Maximum Humidity 82    
Minimum Humidity 49    
Precipitation  
Precipitation 0.00 in - - ()
Sea Level Pressure  
Sea Level Pressure 30.26 in    
Wind  
Wind Speed 8 mph (East)    
Max Wind Speed 13 mph    
Max Gust Speed 17 mph    
Visibility 10 miles    
Events      
Averages and records for this station are not official NWS values.
T = Trace of Precipitation, MM = Missing Value Source: NWS Daily Summary

Daily Weather History Graph

Daily Weather History Graph

Search for Another Location

Airport or City:

Trip Planner

Search our weather history database for the weather conditions in past years. The results will help you decide how hot, cold, wet, or windy it might be!

Date:

Astronomy

Sep. 16, 2013 Rise Set
Actual Time 7:11 AM CDT 7:36 PM CDT
Civil Twilight 6:43 AM CDT 8:04 PM CDT
Nautical Twilight 6:10 AM CDT 8:36 PM CDT
Astronomical Twilight 5:36 AM CDT 9:10 PM CDT
Moon 5:47 PM CDT (9/16) 3:56 AM CDT (9/16)
Length of Visible Light 13h 20m
Length of Day
12h 25m
Waxing Gibbous, 90% of the Moon is Illuminated
Sep 16
Waxing Gibbous
Sep 19
Full
Sep 26
Last Quarter
Oct 4
New
Oct 11
First Quarter

Hourly Weather History & Observations

Time (CDT) Temp. Dew Point Humidity Pressure Visibility Wind Dir Wind Speed Gust Speed Precip Events Conditions
12:15 AM 60.8 °F 51.8 °F 72% 30.28 in 10.0 mi NE 6.9 mph - N/A   Overcast
12:35 AM 60.8 °F 51.8 °F 72% 30.28 in 10.0 mi NE 6.9 mph - N/A   Overcast
12:55 AM 60.8 °F 51.8 °F 72% 30.27 in 10.0 mi NE 6.9 mph - N/A   Overcast
1:15 AM 60.8 °F 51.8 °F 72% 30.28 in 10.0 mi ENE 6.9 mph - N/A   Overcast
1:35 AM 60.8 °F 51.8 °F 72% 30.28 in 10.0 mi NE 9.2 mph - N/A   Overcast
1:55 AM 60.8 °F 51.8 °F 72% 30.28 in 10.0 mi NE 5.8 mph - N/A   Overcast
2:15 AM 60.8 °F 51.8 °F 72% 30.28 in 10.0 mi ENE 4.6 mph - N/A   Overcast
2:35 AM 60.8 °F 51.8 °F 72% 30.28 in 10.0 mi ENE 9.2 mph - N/A   Overcast
2:55 AM 60.8 °F 51.8 °F 72% 30.28 in 10.0 mi ENE 6.9 mph - N/A   Overcast
3:15 AM 60.8 °F 50.0 °F 68% 30.28 in 10.0 mi ENE 5.8 mph - N/A   Overcast
3:35 AM 59.0 °F 50.0 °F 72% 30.28 in 10.0 mi ENE 5.8 mph - N/A   Overcast
3:55 AM 59.0 °F 48.2 °F 67% 30.28 in 10.0 mi ENE 5.8 mph - N/A   Overcast
4:15 AM 59.0 °F 48.2 °F 67% 30.28 in 10.0 mi ENE 4.6 mph - N/A   Overcast
4:35 AM 59.0 °F 48.2 °F 67% 30.29 in 10.0 mi ENE 4.6 mph - N/A   Overcast
4:55 AM 59.0 °F 50.0 °F 72% 30.29 in 10.0 mi ENE 5.8 mph - N/A   Overcast
5:15 AM 59.0 °F 50.0 °F 72% 30.29 in 10.0 mi East 3.5 mph - N/A   Overcast
5:35 AM 59.0 °F 50.0 °F 72% 30.29 in 10.0 mi ENE 8.1 mph - N/A   Overcast
5:55 AM 59.0 °F 50.0 °F 72% 30.29 in 10.0 mi ENE 5.8 mph - N/A   Overcast
6:15 AM 59.0 °F 48.2 °F 67% 30.29 in 10.0 mi East 5.8 mph - N/A   Overcast
6:35 AM 59.0 °F 48.2 °F 67% 30.29 in 10.0 mi East 4.6 mph - N/A   Overcast
6:55 AM 59.0 °F 48.2 °F 67% 30.30 in 10.0 mi ENE 5.8 mph - N/A   Overcast
7:15 AM 57.2 °F 50.0 °F 77% 30.30 in 10.0 mi ENE 4.6 mph - N/A   Overcast
7:35 AM 57.2 °F 50.0 °F 77% 30.31 in 10.0 mi East 3.5 mph - N/A   Overcast
7:55 AM 57.2 °F 50.0 °F 77% 30.31 in 10.0 mi East 3.5 mph - N/A   Overcast
8:15 AM 59.0 °F 50.0 °F 72% 30.32 in 10.0 mi East 8.1 mph - N/A   Overcast
8:35 AM 57.2 °F 50.0 °F 77% 30.32 in 10.0 mi East 6.9 mph - N/A   Overcast
8:55 AM 59.0 °F 51.8 °F 77% 30.32 in 10.0 mi East 10.4 mph - N/A   Overcast
9:15 AM 59.0 °F 51.8 °F 77% 30.32 in 10.0 mi ENE 9.2 mph 16.1 mph N/A   Overcast
9:35 AM 59.0 °F 51.8 °F 77% 30.33 in 10.0 mi East 10.4 mph - N/A   Overcast
9:55 AM 60.8 °F 51.8 °F 72% 30.33 in 10.0 mi East 9.2 mph - N/A   Overcast
10:15 AM 60.8 °F 51.8 °F 72% 30.33 in 10.0 mi East 9.2 mph - N/A   Overcast
10:35 AM 62.6 °F 51.8 °F 68% 30.33 in 10.0 mi East 8.1 mph - N/A   Overcast
10:55 AM 62.6 °F 50.0 °F 63% 30.33 in 10.0 mi ESE 10.4 mph - N/A   Overcast
11:15 AM 64.4 °F 50.0 °F 59% 30.32 in 10.0 mi ESE 8.1 mph 16.1 mph N/A   Overcast
11:35 AM 64.4 °F 50.0 °F 59% 30.32 in 10.0 mi East 8.1 mph - N/A   Overcast
11:55 AM 64.4 °F 48.2 °F 56% 30.32 in 10.0 mi ESE 11.5 mph - N/A   Overcast
12:15 PM 62.6 °F 48.2 °F 59% 30.32 in 10.0 mi ESE 10.4 mph - N/A   Overcast
12:35 PM 64.4 °F 48.2 °F 56% 30.31 in 10.0 mi East 12.7 mph - N/A   Overcast
12:55 PM 66.2 °F 48.2 °F 52% 30.31 in 10.0 mi East 10.4 mph - N/A   Mostly Cloudy
1:15 PM 66.2 °F 48.2 °F 52% 30.30 in 10.0 mi East 10.4 mph - N/A   Overcast
1:35 PM 68.0 °F 50.0 °F 52% 30.29 in 10.0 mi East 10.4 mph 17.3 mph N/A   Mostly Cloudy
1:55 PM 68.0 °F 50.0 °F 52% 30.28 in 10.0 mi East 10.4 mph - N/A   Mostly Cloudy
2:15 PM 69.8 °F 50.0 °F 49% 30.27 in 10.0 mi East 9.2 mph - N/A   Mostly Cloudy
2:35 PM 66.2 °F 48.2 °F 52% 30.26 in 10.0 mi East 12.7 mph - N/A   Scattered Clouds
2:55 PM 66.2 °F 50.0 °F 56% 30.25 in 10.0 mi East 11.5 mph 17.3 mph N/A   Scattered Clouds
3:15 PM 66.2 °F 50.0 °F 56% 30.24 in 10.0 mi East 11.5 mph 17.3 mph N/A   Mostly Cloudy
3:35 PM 66.2 °F 50.0 °F 56% 30.24 in 10.0 mi East 12.7 mph 16.1 mph N/A   Scattered Clouds
3:55 PM 66.2 °F 50.0 °F 56% 30.22 in 10.0 mi East 10.4 mph 16.1 mph N/A   Scattered Clouds
4:15 PM 66.2 °F 50.0 °F 56% 30.22 in 10.0 mi ESE 11.5 mph 17.3 mph N/A   Scattered Clouds
4:35 PM 66.2 °F 50.0 °F 56% 30.21 in 10.0 mi ESE 10.4 mph - N/A   Mostly Cloudy
4:55 PM 66.2 °F 50.0 °F 56% 30.21 in 10.0 mi SE 9.2 mph - N/A   Mostly Cloudy
5:15 PM 66.2 °F 50.0 °F 56% 30.21 in 10.0 mi ESE 11.5 mph - N/A   Mostly Cloudy
5:35 PM 66.2 °F 50.0 °F 56% 30.21 in 10.0 mi SE 8.1 mph - N/A   Mostly Cloudy
5:55 PM 64.4 °F 50.0 °F 59% 30.21 in 10.0 mi SE 6.9 mph - N/A   Mostly Cloudy
6:15 PM 64.4 °F 50.0 °F 59% 30.20 in 10.0 mi SSE 10.4 mph - N/A   Overcast
6:35 PM 64.4 °F 50.0 °F 59% 30.20 in 10.0 mi SE 6.9 mph - N/A   Overcast
6:55 PM 62.6 °F 51.8 °F 68% 30.20 in 10.0 mi SE 8.1 mph - N/A   Overcast
7:15 PM 62.6 °F 51.8 °F 68% 30.19 in 10.0 mi SE 6.9 mph - N/A   Overcast
7:35 PM 62.6 °F 51.8 °F 68% 30.19 in 10.0 mi SSE 6.9 mph - N/A   Overcast
7:55 PM 60.8 °F 51.8 °F 72% 30.19 in 10.0 mi SSE 6.9 mph - N/A   Overcast
8:15 PM 60.8 °F 51.8 °F 72% 30.19 in 10.0 mi SSE 9.2 mph - N/A   Overcast
8:35 PM 60.8 °F 51.8 °F 72% 30.19 in 10.0 mi SSE 9.2 mph - N/A   Overcast
8:55 PM 60.8 °F 51.8 °F 72% 30.20 in 10.0 mi SSE 10.4 mph - N/A   Overcast
9:15 PM 60.8 °F 51.8 °F 72% 30.20 in 10.0 mi SSE 9.2 mph - N/A   Overcast
9:35 PM 60.8 °F 51.8 °F 72% 30.20 in 10.0 mi SE 9.2 mph - N/A   Overcast
9:55 PM 59.0 °F 51.8 °F 77% 30.19 in 10.0 mi SE 11.5 mph 17.3 mph N/A   Overcast
10:15 PM 59.0 °F 51.8 °F 77% 30.20 in 10.0 mi SSE 9.2 mph - N/A   Overcast
10:35 PM 59.0 °F 51.8 °F 77% 30.20 in 10.0 mi SE 9.2 mph - N/A   Overcast
10:55 PM 59.0 °F 51.8 °F 77% 30.20 in 10.0 mi SE 9.2 mph 17.3 mph N/A   Overcast
11:15 PM 57.2 °F 51.8 °F 82% 30.20 in 10.0 mi SE 10.4 mph - N/A   Overcast
11:35 PM 57.2 °F 51.8 °F 82% 30.20 in 10.0 mi SE 8.1 mph - N/A   Overcast
11:55 PM 57.2 °F 51.8 °F 82% 30.19 in 9.0 mi SE 8.1 mph - N/A   Overcast